GEFSMW_500_meanwind_138.txt.gz
Wind_Speed
2 2 2 2 2 1 1 1 2 4 6 7 8 9 10 11 12 12 13 14 15 15 16 17 17 18 18 17 17 16 15 14 13 12 11 11 10 11 13 14 16 18 20
3 3 3 2 2 1 1 2 3 5 6 7 8 9 11 11 13 13 14 15 15 16 16 17 18 18 18 17 17 17 16 14 13 12 11 10 10 10 11 13 15 17 20
3 3 3 3 3 1 1 2 3 5 6 7 9 10 11 12 13 14 15 16 16 16 17 17 18 18 18 18 17 17 16 15 13 12 10 9 9 9 10 12 14 16 18
3 3 3 3 2 1 1 2 4 5 7 8 9 10 11 12 13 15 15 16 17 17 17 18 18 18 18 18 18 17 16 15 14 12 10 9 8 9 9 11 13 15 17
4 3 3 3 2 2 2 3 4 6 7 8 9 10 12 13 14 15 16 16 17 18 18 19 19 19 19 18 18 17 16 15 14 12 10 9 8 8 9 9 11 14 16
3 3 3 2 2 2 3 3 5 6 7 8 10 11 12 14 15 15 16 16 17 18 19 19 19 19 19 18 18 17 16 15 14 13 11 9 9 8 8 9 10 13 15
3 3 2 2 3 3 3 5 6 7 8 9 11 12 14 15 16 17 17 17 18 19 19 20 19 19 19 19 18 17 16 15 14 13 12 10 9 8 8 8 10 12 14
3 3 3 3 3 4 5 6 7 8 9 11 12 14 15 16 17 17 18 19 19 20 20 21 20 20 19 19 18 17 16 15 14 13 12 11 10 8 8 8 10 11 13
4 4 4 4 5 5 6 7 8 9 10 11 13 15 16 17 17 18 19 19 20 20 21 21 21 21 20 19 19 18 17 16 15 13 13 12 10 9 9 9 10 12 13
5 5 6 6 6 7 7 9 10 11 12 13 15 16 17 18 18 19 20 21 21 22 21 21 22 21 21 20 19 19 17 16 16 14 13 12 11 10 10 10 11 12 14
5 7 7 7 8 8 9 10 11 12 13 15 16 17 18 19 20 21 22 23 24 24 23 24 23 22 22 21 20 19 18 17 17 16 15 14 13 12 12 12 12 13 14
6 7 8 9 9 10 11 11 12 13 15 16 18 19 19 20 22 23 24 25 25 26 26 25 25 24 23 22 21 21 20 19 18 17 16 16 15 14 14 13 13 13 15
9 9 10 10 11 12 13 14 14 16 17 18 19 20 21 22 23 25 26 27 27 27 28 27 26 26 25 24 23 22 22 20 20 19 18 17 17 16 15 15 15 15 15
11 11 12 13 13 14 15 16 17 18 19 20 21 22 23 24 25 27 28 28 29 29 29 29 28 28 27 26 25 24 23 22 22 21 20 19 19 18 18 18 18 18 18
13 13 14 14 15 16 17 18 19 21 21 22 23 24 25 26 28 29 30 30 31 30 31 31 30 29 28 28 27 26 25 25 24 23 22 22 21 20 20 20 20 20 20
14 15 15 16 17 18 19 20 22 23 24 24 25 26 27 29 30 30 32 32 32 32 32 32 32 31 30 29 28 28 27 27 26 26 25 25 24 24 24 23 23 23 23
15 16 17 18 19 20 22 23 24 25 26 27 28 29 30 31 32 32 33 34 34 34 34 34 33 33 32 31 30 29 28 29 29 29 29 28 28 28 27 27 26 26 26
18 19 20 21 22 23 25 26 26 27 28 29 30 32 33 34 34 35 35 36 35 35 35 35 35 35 35 34 33 32 31 31 32 32 32 32 32 31 31 31 30 29 28
20 21 22 23 25 26 27 28 29 29 30 31 32 33 34 35 36 37 37 37 36 36 36 37 38 38 38 37 36 35 34 33 34 35 35 35 35 35 35 35 33 32 32
22 24 25 26 27 28 29 30 31 32 32 33 34 35 36 37 38 38 38 37 38 38 39 40 41 41 40 39 38 37 37 36 36 37 37 38 38 38 37 37 37 35 35
25 26 27 28 29 30 30 31 33 34 35 35 36 37 38 39 39 39 39 39 40 41 42 42 42 42 41 40 39 38 38 38 39 39 38 39 40 39 38 38 38 37 37
28 29 29 30 31 32 33 33 34 35 36 37 38 39 40 41 41 41 41 41 42 43 43 43 43 43 42 41 41 40 40 40 41 41 40 40 40 39 38 37 38 38 38
30 31 31 32 33 34 35 36 36 37 38 39 40 41 41 42 43 43 43 43 43 44 44 44 44 44 44 43 42 42 41 41 42 42 41 40 39 38 37 37 37 38 38
32 33 34 35 35 36 37 38 38 39 40 42 42 43 43 44 44 45 45 45 45 45 46 46 46 45 45 44 43 42 42 42 42 42 40 39 39 38 37 36 36 36 37
35 36 36 37 38 39 39 40 41 41 42 43 43 44 45 45 46 47 47 47 47 47 48 48 47 47 46 45 44 44 44 43 42 41 40 39 39 38 38 37 36 36 37
37 38 39 40 41 41 42 42 42 43 44 44 45 46 47 47 48 48 48 49 49 49 50 50 49 48 48 47 46 45 45 44 43 42 40 40 40 39 39 38 37 37 38

GEFSMW_500_meanwind_144.txt.gz
Wind_Speed
8 8 7 6 5 4 4 2 2 3 4 5 6 7 8 9 10 11 12 13 13 14 15 16 17 17 18 18 18 17 17 16 15 14 13 12 11 10 9 10 11 13 15
8 8 7 6 6 5 4 3 2 3 4 5 6 7 8 9 11 12 13 14 14 15 16 17 17 18 18 18 18 17 17 17 16 15 14 13 11 10 10 9 10 11 14
8 9 7 6 6 5 4 3 3 3 4 5 6 7 8 10 11 12 14 14 15 16 17 17 18 18 18 19 18 18 17 17 16 15 14 13 13 11 10 10 10 10 12
9 8 8 7 6 6 4 4 3 4 4 5 6 7 9 10 12 13 14 15 16 17 17 18 18 18 19 19 19 19 18 18 17 15 14 13 13 12 11 10 9 9 11
9 8 7 7 6 6 5 4 4 4 5 6 7 8 9 11 12 13 15 16 17 18 18 19 19 19 20 20 20 20 19 18 17 16 14 13 13 12 11 11 10 9 10
8 8 8 7 6 6 5 4 4 5 6 6 7 8 10 12 13 14 15 17 18 19 19 20 20 20 21 21 21 20 19 18 17 16 15 14 13 12 11 11 10 9 9
8 8 8 7 6 6 5 5 5 6 7 7 8 10 11 12 14 15 16 17 18 19 20 21 21 21 22 22 21 21 20 19 18 16 16 15 14 13 12 11 10 9 9
8 8 8 7 7 6 6 6 7 7 8 9 10 11 12 13 15 16 17 18 19 20 20 21 22 22 22 22 22 21 20 20 19 18 17 15 14 14 13 12 11 11 10
8 8 7 7 7 7 7 7 8 9 9 10 11 12 13 15 16 17 18 19 20 21 22 22 23 23 23 23 23 22 22 21 19 18 17 17 16 15 14 13 12 12 11
7 7 7 8 8 8 9 9 10 10 11 12 13 14 15 16 17 17 19 20 21 22 23 23 24 24 24 24 24 24 23 22 21 20 19 18 17 16 16 15 14 13 13
8 8 8 8 9 9 10 11 11 12 12 13 14 15 16 17 18 19 20 21 22 23 24 25 26 26 25 25 25 25 24 23 23 22 21 20 19 18 18 17 16 15 15
9 9 9 9 10 10 11 12 12 13 14 15 16 17 18 19 19 20 21 22 23 24 25 26 27 27 27 27 27 27 26 26 25 24 23 21 20 19 19 18 18 17 17
10 10 10 10 11 12 13 13 14 15 16 17 18 19 20 21 22 22 23 24 25 26 27 28 29 28 28 29 29 28 28 27 26 24 23 22 21 20 20 20 20 19 19
11 12 12 12 13 13 14 15 15 16 18 19 20 21 22 22 23 24 25 26 27 28 28 29 30 30 30 31 30 30 29 28 26 25 24 23 22 21 21 21 21 21 21
13 13 13 14 14 14 15 16 17 18 19 20 21 23 24 24 25 26 27 27 28 30 30 31 32 32 32 32 31 30 29 27 27 26 26 25 24 24 24 24 23 23 23
14 14 15 15 16 16 17 18 19 20 21 22 24 25 25 26 27 28 29 29 30 31 32 33 33 33 33 32 31 30 29 28 28 28 27 27 26 26 27 27 27 26 26
15 15 16 17 17 18 19 20 21 22 24 25 26 26 27 28 29 29 30 31 32 32 33 34 35 34 34 33 32 30 29 29 29 29 29 29 29 28 28 29 30 30 30
16 16 17 18 19 20 21 22 24 25 26 27 28 28 29 29 30 31 32 32 33 34 34 35 36 36 35 34 33 32 31 31 31 32 32 31 30 30 30 31 32 33 33
18 18 19 20 22 23 24 25 26 27 28 29 30 30 31 31 32 32 33 34 34 35 36 36 37 36 36 35 34 34 34 34 34 35 34 33 32 32 33 34 35 35 36
20 21 21 22 24 25 25 27 28 29 30 30 31 31 32 33 33 34 35 36 37 37 38 38 38 37 37 37 36 36 36 36 36 37 37 36 35 35 35 35 36 37 38
22 23 24 25 26 27 28 29 30 31 31 32 33 33 34 35 35 36 37 38 39 39 40 40 40 39 39 38 38 38 38 39 39 39 39 39 38 37 37 37 38 39 40
25 25 26 27 28 29 29 30 32 32 33 34 34 35 36 36 37 38 39 40 40 40 41 41 42 41 41 40 40 40 40 41 42 43 42 41 40 39 39 40 40 41 41
27 28 29 29 30 31 32 33 34 34 35 36 36 37 38 39 40 40 41 41 42 42 42 43 43 43 43 42 42 42 43 44 45 45 44 43 42 41 41 42 42 42 42
30 31 31 32 32 33 34 35 35 36 37 38 39 39 40 41 42 43 43 44 44 44 44 45 45 45 45 44 44 44 45 46 47 46 45 44 44 43 43 43 43 43 43
33 33 33 34 35 35 36 37 38 39 39 40 41 42 43 44 44 45 45 46 46 46 46 46 46 46 46 46 46 46 47 47 47 46 45 45 44 44 44 44 44 43 43
35 35 35 36 37 38 38 39 40 40 41 42 43 43 44 45 45 46 46 47 48 48 48 48 48 48 48 48 48 48 48 48 47 47 46 45 45 44 45 45 44 44 43

GEFSMW_500_meanwind_150.txt.gz
Wind_Speed
9 8 8 6 5 5 4 3 3 3 3 3 3 4 5 6 7 8 9 10 11 12 13 14 14 14 14 14 14 14 13 12 12 11 11 10 9 9 8 8 8 9 10
9 9 8 7 6 5 4 4 4 3 3 3 3 4 5 5 6 7 8 9 10 12 13 14 14 14 14 14 14 14 13 13 13 12 12 11 10 9 9 8 8 8 9
9 9 9 8 7 6 5 4 4 4 3 3 3 3 4 5 6 8 9 10 11 12 14 14 15 14 14 14 14 14 13 13 13 13 13 12 11 10 9 9 8 8 8
9 9 9 9 8 7 6 5 4 4 3 3 3 4 5 6 7 9 9 11 12 13 14 15 15 15 15 14 14 14 14 14 14 14 14 13 12 11 10 10 9 8 8
10 10 9 9 9 8 7 6 6 5 4 4 4 5 6 7 8 9 10 11 13 13 14 15 15 15 15 15 15 15 15 15 15 15 14 13 12 11 11 10 9 9 9
10 10 10 10 9 9 8 8 7 6 5 5 5 6 6 7 8 9 10 12 13 13 14 15 15 15 16 16 16 16 16 16 16 16 15 14 13 12 11 10 9 9 9
10 11 10 10 10 10 9 8 8 7 6 6 7 7 7 8 9 10 11 13 13 13 14 15 15 16 16 17 17 17 17 17 17 17 16 15 14 13 12 11 10 9 9
10 10 10 10 10 10 9 9 8 7 7 7 8 8 8 9 10 11 12 13 14 14 15 15 16 17 18 18 19 19 18 18 18 17 16 16 15 14 13 12 11 11 11
10 10 10 11 11 10 10 9 9 8 8 9 9 10 10 11 12 13 14 14 15 15 16 17 17 18 19 20 20 20 20 20 19 18 17 17 16 15 14 13 12 12 12
10 10 10 10 11 11 10 10 10 10 10 10 11 11 12 13 13 14 15 15 16 16 17 18 19 19 20 21 21 21 21 20 20 19 19 18 17 16 15 14 13 13 13
10 10 11 11 11 11 11 11 11 11 11 11 12 13 13 14 15 15 16 17 17 17 18 18 19 20 21 22 22 22 22 21 21 20 20 20 19 17 16 15 14 15 15
10 11 11 12 12 12 12 12 12 12 13 13 13 14 15 15 16 17 17 18 18 19 19 20 21 22 22 23 23 23 23 22 22 22 22 21 20 18 17 16 16 16 17
11 11 12 13 13 13 13 13 14 14 14 14 15 16 17 17 18 18 19 19 19 20 21 22 23 23 24 24 24 24 23 23 23 23 22 21 20 18 18 18 18 18 19
13 13 13 13 14 14 14 14 15 15 16 16 17 18 19 19 19 20 20 21 21 22 22 23 24 25 25 26 26 25 25 24 24 23 22 21 20 19 19 20 20 21 21
14 14 14 14 14 15 15 16 16 17 17 18 19 20 20 20 21 21 22 22 23 23 24 24 25 26 26 27 27 26 25 25 24 23 23 23 21 21 21 22 22 23 23
15 15 15 16 16 16 17 17 18 18 19 20 20 21 21 22 22 23 23 23 24 24 25 26 27 27 28 28 28 27 26 26 25 25 25 25 24 24 25 25 24 24 25
16 16 17 17 17 18 18 19 19 20 21 21 22 22 23 23 24 24 24 25 25 27 27 28 28 29 29 29 30 29 28 28 27 27 27 27 27 27 27 27 28 28 28
17 17 18 18 19 19 20 20 21 21 22 22 23 24 24 25 25 26 26 27 27 28 28 29 29 30 30 31 31 30 30 30 29 29 29 29 29 29 29 29 30 30 30
18 18 19 19 20 20 21 21 22 22 23 24 24 25 26 26 27 27 28 28 28 29 29 30 31 31 32 32 32 32 31 31 31 32 32 32 32 32 33 33 33 32 33
19 19 20 20 21 21 22 23 23 23 24 25 26 26 27 28 28 29 29 30 30 31 31 32 32 33 33 33 33 34 34 34 34 34 34 34 35 35 36 36 35 35 35
20 20 21 21 22 23 24 25 25 26 26 27 27 28 29 29 30 30 31 32 32 33 33 34 34 35 35 36 35 36 36 36 36 37 36 36 37 38 38 38 38 38 38
21 22 23 23 24 25 26 27 27 28 28 28 29 30 31 31 32 33 34 34 35 35 36 36 36 36 37 38 38 38 38 39 39 39 39 39 39 40 40 40 40 40 40
24 24 25 25 26 26 27 28 29 29 29 30 31 32 32 33 34 35 36 37 37 38 38 38 38 39 39 40 40 40 40 40 41 41 41 41 41 41 41 41 41 41 41
26 26 27 27 28 29 29 30 30 31 31 32 33 34 35 35 36 37 38 39 39 40 40 40 40 41 41 41 42 42 42 42 43 43 43 42 42 42 43 42 42 41 42
28 28 28 29 29 30 31 31 32 33 33 34 35 36 36 37 38 39 40 40 41 42 42 42 42 42 43 43 43 44 44 44 44 44 44 44 43 44 44 43 43 42 42
29 29 30 31 31 32 33 33 34 35 36 37 37 38 39 39 40 41 41 42 42 43 43 44 45 45 45 45 45 45 46 46 46 46 45 45 44 44 43 44 43 43 43

GEFSMW_500_meanwind_156.txt.gz
Wind_Speed
8 7 6 6 5 4 2 1 2 2 3 3 4 4 5 6 7 8 9 11 12 13 13 14 14 14 14 14 13 13 13 12 12 12 11 9 9 8 8 8 8 8 8
8 7 6 6 5 4 3 2 2 2 2 3 3 4 5 6 7 9 10 10 12 13 13 14 14 15 14 14 14 13 13 13 12 12 11 11 10 9 9 9 9 9 9
8 7 6 6 5 4 4 3 3 2 3 3 4 4 6 7 8 9 9 10 11 12 13 14 15 14 14 14 14 13 13 13 13 12 12 11 11 10 10 10 9 9 9
7 7 6 6 6 5 4 4 3 3 3 3 4 5 6 7 8 9 10 10 11 12 13 14 15 15 14 14 14 14 13 14 14 13 13 12 12 11 11 10 10 10 10
7 7 6 6 6 6 5 5 4 4 4 4 5 6 7 7 8 9 10 11 11 12 13 14 15 15 15 15 15 14 14 14 15 15 14 13 13 12 12 11 11 10 10
7 7 7 7 7 7 7 6 6 6 6 6 6 7 8 8 9 10 10 11 12 13 14 15 15 16 15 15 15 15 16 16 16 15 14 14 14 14 13 13 12 12 11
7 7 7 7 8 8 8 7 7 7 7 7 8 8 9 9 10 11 11 12 13 14 15 15 15 16 16 16 16 16 17 17 17 16 15 15 15 15 14 14 13 13 12
8 8 8 8 8 8 8 8 8 8 9 9 9 10 10 11 11 12 12 13 14 14 15 16 16 16 16 16 17 18 18 18 17 17 17 17 16 16 15 15 14 13 13
8 8 9 9 9 9 9 9 9 10 10 10 11 11 11 12 12 13 13 14 14 15 15 16 16 17 17 17 18 19 19 18 18 18 18 18 17 17 16 16 15 15 14
9 9 9 10 10 10 10 10 11 11 12 12 12 12 12 12 13 13 14 15 15 15 16 16 17 17 18 18 19 19 19 19 20 20 20 19 18 18 17 17 17 16 15
10 10 10 10 11 11 11 12 12 12 13 13 13 13 13 14 14 15 15 16 16 16 17 17 18 18 19 19 20 21 21 21 21 21 20 20 19 19 18 17 17 16 15
11 11 11 11 12 12 12 12 13 14 14 14 14 14 15 15 16 16 17 17 18 18 18 18 19 19 20 20 21 22 22 22 21 21 21 21 20 19 18 18 18 17 16
11 11 12 13 13 13 13 13 14 14 15 15 15 16 16 17 17 18 18 19 19 19 19 19 20 20 20 21 22 23 22 22 22 23 22 21 20 19 19 18 18 17 17
12 12 13 13 14 14 15 15 15 15 16 16 17 17 18 18 19 19 20 20 20 20 20 20 20 21 22 23 24 24 23 24 24 24 23 22 21 20 19 19 18 18 18
13 14 14 14 15 15 15 16 16 16 17 17 18 18 19 20 20 21 21 21 21 21 21 21 22 22 23 24 24 25 25 25 25 25 24 23 22 21 20 20 20 20 20
16 15 15 15 16 16 16 16 16 17 18 18 19 20 21 21 22 22 22 23 23 23 23 23 23 24 25 25 26 26 26 26 26 25 25 25 24 23 23 22 23 23 23
18 17 16 16 17 17 17 18 18 19 19 20 20 21 22 22 23 23 24 24 24 24 24 24 25 26 26 26 26 27 27 28 27 27 27 27 26 26 26 25 25 26 26
17 17 17 17 18 18 19 19 20 20 20 21 21 22 23 23 24 24 24 24 24 25 25 26 26 27 27 28 28 29 30 30 30 29 29 29 28 28 29 29 29 29 30
18 18 18 19 19 20 20 20 21 21 22 22 23 23 24 24 24 25 25 26 26 27 27 28 28 28 29 30 31 31 31 31 31 31 31 31 31 31 31 32 32 32 33
19 19 19 20 20 21 21 21 22 22 23 24 24 25 25 25 25 26 27 28 28 28 29 29 30 30 31 32 33 33 33 33 33 34 33 33 33 34 34 35 35 35 36
20 20 21 21 21 22 22 23 23 23 24 24 25 26 26 26 27 28 29 29 30 30 30 31 32 32 33 34 35 35 36 36 36 36 36 35 36 36 37 37 38 39 39
21 22 22 22 23 23 23 24 24 25 25 25 26 27 28 28 29 30 31 31 32 32 33 33 34 35 36 36 37 37 37 38 38 38 38 38 38 38 39 40 40 41 41
23 23 23 24 24 24 25 25 25 26 27 28 28 29 30 30 31 32 32 33 34 34 35 36 36 37 38 38 39 39 39 40 40 40 40 40 40 41 41 41 42 42 43
25 25 25 25 26 26 27 27 27 28 29 30 30 31 32 32 33 34 35 35 36 37 37 38 39 39 40 41 41 42 42 42 42 42 42 42 42 43 43 43 43 44 44
27 27 27 28 28 28 29 29 30 31 31 32 32 33 34 34 35 36 37 37 38 39 40 40 41 42 42 43 44 44 44 44 44 44 44 44 44 44 44 44 44 44 44
29 29 29 30 30 30 31 31 32 33 33 34 34 35 36 37 38 38 39 39 40 41 42 43 44 44 45 45 46 46 46 46 46 46 46 46 46 46 46 46 45 45 45

GEFSMW_500_meanwind_162.txt.gz
Wind_Speed
10 8 7 7 6 5 4 3 3 2 1 0 0 1 2 3 4 5 7 8 8 9 10 10 11 11 11 11 11 10 10 9 9 8 8 7 6 6 6 6 6 6 6
9 9 7 7 6 6 5 4 4 3 2 1 1 1 2 3 4 5 7 7 8 9 9 10 11 11 11 11 11 10 10 10 10 9 8 8 7 7 7 7 7 7 7
8 8 8 7 7 6 6 5 4 3 2 2 1 2 2 3 4 5 7 7 8 9 10 10 11 11 11 11 11 11 11 11 10 10 10 9 9 9 8 8 8 8 7
9 9 9 8 8 7 6 6 5 4 3 2 2 2 3 4 5 6 7 7 8 9 10 10 10 10 11 11 11 11 11 11 11 10 10 10 10 9 9 9 9 8 8
9 9 8 9 8 8 7 7 6 5 4 3 3 3 3 4 5 6 7 8 8 9 10 10 11 11 11 11 11 11 11 12 11 11 11 11 11 10 10 10 10 9 9
9 8 9 9 9 8 8 7 6 6 5 4 4 4 4 5 6 6 7 8 9 10 10 10 11 11 11 11 12 12 12 12 12 12 12 12 12 12 12 11 11 10 10
9 9 9 9 9 8 8 8 8 7 6 6 5 5 6 6 7 7 8 9 9 10 10 11 11 11 11 12 12 12 13 13 13 13 13 13 13 14 13 13 12 11 11
9 10 10 10 10 9 9 9 9 8 7 7 7 7 7 7 8 8 9 9 10 11 11 11 11 11 12 12 13 13 13 14 14 14 14 14 14 15 15 14 14 12 12
10 10 9 10 10 10 9 9 9 9 8 8 8 8 8 8 9 9 10 10 11 12 12 12 12 12 12 13 13 14 14 15 15 15 15 15 15 15 15 15 13 13 12
10 9 8 9 10 10 10 10 10 10 10 10 10 10 10 10 10 10 11 12 12 12 13 13 13 13 13 14 14 15 15 16 16 16 16 16 16 15 15 14 13 13 13
10 10 10 10 10 11 11 11 11 11 11 11 12 12 12 11 11 12 12 13 13 13 13 14 14 14 14 15 15 16 16 17 17 17 17 17 17 17 17 15 14 14 14
10 10 11 11 11 11 12 12 12 12 12 12 13 13 13 13 13 13 14 14 14 14 15 15 15 15 16 16 16 17 17 18 18 18 18 18 18 18 17 16 16 15 15
11 11 12 12 12 12 13 13 13 13 13 13 14 14 15 15 15 15 15 15 15 16 16 16 16 16 17 17 18 18 18 19 19 19 19 19 19 19 18 17 16 16 16
11 12 13 13 13 14 14 14 13 13 14 14 15 16 16 16 16 16 17 17 17 17 18 17 17 18 18 18 19 19 20 20 20 20 20 20 20 20 19 18 18 18 18
12 12 13 14 14 15 15 15 15 15 15 15 16 16 17 17 18 18 18 18 19 19 19 19 19 19 20 20 20 21 21 22 22 21 21 21 21 21 21 21 20 20 20
12 13 14 14 15 15 15 15 16 16 16 16 17 17 18 18 18 19 19 19 20 20 21 21 21 21 22 22 22 23 23 23 23 23 24 23 23 23 23 23 23 22 22
13 13 14 15 15 16 16 16 17 17 17 18 18 19 19 19 19 19 20 21 21 22 22 22 23 23 24 24 25 25 25 25 25 26 26 26 26 27 26 26 26 26 25
14 15 16 16 17 17 18 18 18 19 19 19 20 20 20 20 20 20 21 22 22 23 24 25 25 25 26 26 26 27 27 27 28 28 29 29 29 30 29 29 28 28 28
16 17 17 17 18 18 19 19 19 20 21 21 21 21 21 21 21 22 23 23 24 25 26 26 27 27 28 28 28 29 30 30 30 30 30 30 31 31 31 31 31 31 31
18 18 19 19 19 19 19 20 21 21 22 22 22 22 23 23 23 24 25 25 26 27 27 28 28 29 29 30 31 31 32 32 32 32 32 32 33 33 33 33 33 33 33
19 19 19 19 20 20 20 21 21 22 23 23 24 24 24 25 25 26 27 27 28 29 29 30 30 31 31 32 33 33 34 34 34 34 34 35 35 35 35 36 36 36 36
21 21 21 21 21 21 21 22 23 23 24 24 24 24 25 26 27 28 29 29 30 30 31 32 32 33 34 34 35 36 36 36 36 37 37 37 38 38 38 38 39 38 38
23 23 23 23 23 23 23 24 24 25 26 26 26 26 27 28 29 29 30 31 32 32 33 33 34 35 36 37 37 38 38 38 39 39 40 41 41 41 41 41 41 40 40
24 24 25 25 25 25 26 26 27 27 28 28 28 28 29 30 31 32 32 33 34 35 35 36 37 37 38 39 39 40 40 41 42 42 43 43 43 43 42 42 42 43 43
26 26 26 27 27 28 28 28 29 30 30 30 30 31 31 32 33 34 34 35 36 37 38 39 39 39 40 41 42 42 43 44 44 44 44 44 45 45 45 45 45 46 46
27 27 27 27 28 29 29 30 30 31 31 32 32 33 33 34 35 35 36 37 38 39 40 41 41 42 42 43 44 45 46 46 47 47 47 47 48 48 48 49 49 49 49

GEFSMW_500_meanwind_168.txt.gz
Wind_Speed
12 11 11 10 9 8 6 5 4 3 2 2 1 1 2 3 3 4 5 6 7 7 8 9 9 9 10 10 10 10 11 11 10 9 9 8 7 7 7 7 7 6 6
11 11 11 10 9 8 7 5 4 4 3 3 2 2 2 3 3 4 5 6 7 7 8 9 9 9 10 9 9 10 10 11 10 9 9 9 8 8 7 7 8 7 7
11 11 11 10 9 8 7 6 5 5 4 3 3 2 3 3 4 4 5 6 7 8 8 9 9 9 9 9 10 10 10 11 10 10 9 9 9 8 8 9 9 8 8
12 11 11 10 9 8 8 7 6 5 5 4 4 3 3 3 4 5 5 6 7 8 8 9 9 9 9 10 10 11 11 11 11 11 10 10 9 9 10 10 10 10 10
12 12 11 10 10 9 8 7 7 6 6 5 5 4 4 4 5 5 5 6 7 8 9 9 9 9 10 10 11 11 11 11 11 11 11 11 10 10 11 11 12 12 11
12 12 11 10 10 10 9 9 8 7 7 6 6 5 5 5 5 6 6 7 7 8 9 10 10 10 11 11 11 11 11 11 11 12 12 12 12 12 12 12 12 12 12
12 12 12 11 11 10 10 10 9 9 8 8 7 6 6 7 7 7 7 7 8 8 9 10 10 11 11 11 11 11 12 12 12 13 13 13 14 14 14 14 14 14 13
12 12 12 11 11 11 11 11 10 10 9 9 9 8 8 8 9 9 9 9 9 9 10 11 11 11 12 12 12 12 12 13 13 14 14 14 15 15 15 15 15 16 15
13 12 12 12 13 12 12 12 11 11 11 11 10 10 10 10 10 10 10 10 10 10 11 12 12 12 13 13 13 13 14 14 14 15 15 15 16 16 16 16 16 16 15
13 13 13 13 13 14 13 13 12 12 12 12 11 12 12 12 12 12 12 12 12 12 12 12 12 13 14 14 14 15 15 16 16 16 16 17 17 17 17 16 16 16 16
13 13 13 13 13 14 14 13 13 13 13 12 12 13 13 13 13 13 13 13 13 13 13 13 13 14 14 15 16 16 17 17 17 17 18 18 18 18 18 18 17 17 17
12 13 13 13 14 14 14 14 14 14 14 14 14 14 14 15 15 15 15 15 15 14 14 14 14 15 16 16 17 18 18 18 19 19 19 19 19 19 19 19 18 18 18
12 13 14 14 14 14 14 14 15 15 15 15 15 15 16 16 15 16 16 16 16 16 16 16 16 17 17 18 19 19 20 20 20 20 21 21 21 20 21 20 20 20 19
13 14 14 14 15 15 15 15 15 16 16 16 16 16 16 16 16 17 17 17 17 18 18 18 18 18 19 19 20 21 21 22 22 22 22 23 22 22 22 22 22 21 21
14 15 15 16 15 16 15 16 16 17 17 17 17 17 17 17 18 18 18 18 19 19 19 20 20 20 21 21 22 22 23 23 24 24 24 24 24 24 24 23 23 23 23
15 15 15 16 16 16 16 16 17 18 17 18 18 19 19 18 18 18 19 19 20 20 21 21 22 22 23 23 24 24 25 25 25 26 26 26 26 26 26 25 25 25 25
15 15 15 16 16 17 17 17 18 18 19 19 19 19 20 20 20 20 21 21 21 21 22 22 23 23 24 25 25 26 26 27 27 27 28 28 28 28 28 27 27 27 27
16 17 17 17 18 18 18 19 19 20 20 21 21 21 22 22 22 22 22 22 23 23 24 24 25 25 26 26 26 27 28 28 29 30 30 30 31 30 30 30 29 29 29
18 18 19 19 19 19 20 20 20 21 22 22 22 23 23 23 23 23 23 24 24 25 25 26 26 27 27 28 29 30 30 31 31 32 32 33 33 33 32 32 32 32 32
20 20 20 20 21 21 21 22 22 22 22 23 23 24 24 24 24 25 25 26 27 27 27 28 28 29 30 30 31 32 33 33 34 34 34 35 35 35 35 35 35 34 34
21 22 22 22 22 22 23 23 23 23 23 24 24 25 25 25 26 26 27 28 28 28 29 30 30 31 32 33 33 34 35 36 36 36 36 37 37 37 37 38 38 37 37
22 23 23 23 23 23 23 23 24 24 25 25 25 25 26 27 27 28 29 29 30 30 31 31 32 32 33 34 35 36 37 38 38 38 39 39 39 39 40 40 40 40 40
24 24 24 24 24 24 25 25 26 26 26 26 27 27 28 29 30 30 31 31 32 32 32 33 34 34 35 37 38 39 39 40 41 41 41 42 42 42 42 42 42 42 42
25 26 26 26 26 26 27 27 28 28 29 29 29 30 30 31 32 32 33 33 34 34 35 35 36 37 38 39 40 41 42 42 43 44 44 44 44 44 45 45 45 45 44
27 27 28 28 28 28 28 28 29 29 30 30 31 31 32 32 33 34 35 35 36 36 37 38 39 40 41 42 43 43 44 45 45 46 46 46 47 47 47 48 48 48 48
29 29 29 29 29 29 29 29 30 30 31 31 32 33 33 34 35 35 36 37 38 38 39 40 41 42 43 44 45 46 46 47 47 48 48 49 49 49 49 50 50 50 50

GEFSMW_500_meanwind_174.txt.gz
Wind_Speed
12 12 11 11 10 9 8 7 6 5 4 4 4 4 3 3 3 3 4 5 6 6 7 7 7 7 7 8 8 8 8 8 8 7 7 6 6 6 5 5 5 5 6
12 12 12 11 10 9 8 7 7 6 6 5 4 4 3 3 3 4 4 5 5 6 6 6 6 7 7 7 7 7 7 8 8 8 7 7 7 6 7 6 6 6 6
13 12 12 11 10 10 9 8 8 8 7 5 5 4 4 4 4 4 4 5 5 5 6 6 6 6 6 7 7 7 7 8 8 8 7 7 7 7 7 7 7 7 6
13 13 12 11 10 10 10 9 9 8 8 7 6 5 5 4 5 5 5 5 5 6 6 6 6 6 6 6 7 7 8 8 8 8 8 8 8 8 8 8 8 8 8
13 13 12 11 10 10 11 10 10 9 8 8 7 6 5 5 5 6 6 6 6 6 6 6 7 7 7 7 7 8 9 9 9 9 9 9 9 9 10 10 10 10 10
13 13 12 12 11 11 11 11 10 9 9 8 8 7 7 7 7 6 7 7 7 7 7 7 7 8 8 8 9 9 9 10 9 10 10 11 11 11 12 12 12 11 11
14 13 12 12 12 12 12 11 11 10 9 9 9 9 9 8 8 8 8 8 8 7 8 8 8 8 8 9 9 10 10 10 10 11 12 12 12 13 13 14 13 13 13
15 14 13 12 12 13 12 12 12 12 11 10 10 10 10 10 10 10 10 9 9 9 9 9 9 9 9 9 9 10 10 11 11 12 13 13 13 14 15 15 14 14 14
14 14 14 13 12 13 13 13 13 12 12 12 12 12 12 12 12 11 11 11 10 10 10 10 9 9 10 10 10 11 11 12 12 13 13 14 14 15 15 16 16 16 16
13 14 14 13 13 13 13 14 14 13 13 13 13 13 13 13 13 12 12 12 12 12 11 11 11 11 11 11 11 12 12 13 13 14 14 15 15 15 16 16 16 16 17
12 13 13 13 13 13 13 14 14 14 14 14 14 14 14 14 14 14 14 13 13 13 13 13 12 12 12 12 12 13 13 14 14 15 15 15 16 16 16 17 17 17 17
12 12 12 13 13 13 13 13 14 15 15 15 15 14 14 15 15 15 15 14 14 14 14 14 14 14 14 14 14 14 14 15 15 15 16 16 17 17 18 18 18 18 18
12 12 12 12 13 13 14 14 14 14 15 15 15 14 15 15 15 15 15 15 15 15 15 16 15 15 15 16 16 16 16 16 16 17 17 18 18 19 19 20 20 20 20
13 13 13 13 13 13 14 14 14 15 15 15 15 15 15 16 16 16 16 17 17 17 17 17 17 17 17 17 17 17 17 18 18 18 19 19 20 20 21 21 21 21 22
13 14 14 14 14 14 14 15 15 16 16 16 16 17 17 17 17 18 18 18 18 18 18 18 18 18 18 18 19 19 19 20 20 20 20 21 22 22 23 23 23 24 24
13 14 14 14 15 15 15 16 17 17 17 17 18 18 18 18 18 19 18 18 18 19 19 19 19 19 19 20 20 20 21 21 22 22 22 23 24 24 25 25 26 26 27
13 14 15 15 16 16 16 17 18 18 19 19 19 20 20 19 19 19 19 19 20 20 20 20 20 20 21 21 22 22 22 23 24 24 25 26 26 27 27 27 28 28 29
15 15 16 16 16 17 17 18 19 19 20 20 20 20 20 20 20 20 20 21 21 21 21 22 22 23 23 23 24 24 25 25 26 27 27 28 29 29 30 30 30 31 31
16 17 17 18 18 18 18 19 19 20 20 20 20 21 21 21 21 21 22 22 22 23 23 24 24 24 25 25 26 26 26 27 28 29 30 30 31 32 33 33 34 34 34
17 18 19 19 20 19 20 20 20 20 21 21 21 21 22 22 22 23 23 24 24 25 25 25 26 26 26 27 28 28 29 29 30 31 32 33 34 34 35 36 36 37 37
19 19 20 20 20 21 21 21 21 21 22 22 22 23 23 23 24 24 25 25 25 26 26 27 27 28 28 29 30 31 31 32 32 33 34 35 36 37 37 38 38 38 38
20 20 20 20 21 22 22 22 23 23 23 24 24 24 24 25 25 26 26 27 27 27 28 29 29 30 31 32 32 33 33 33 34 35 36 37 37 38 39 40 40 40 40
20 21 22 22 22 23 23 24 24 24 25 25 25 26 26 26 26 27 28 28 29 29 30 31 32 32 33 34 34 34 34 35 36 37 38 39 39 40 41 41 42 42 42
22 22 23 23 24 24 25 25 26 26 26 26 27 27 28 28 28 29 30 30 31 31 32 33 34 34 34 35 35 36 37 37 39 40 40 41 41 42 42 43 44 44 44
24 24 25 25 26 26 27 27 27 27 28 28 28 29 29 30 30 31 32 32 32 33 34 34 35 35 36 37 37 38 39 40 41 42 42 43 43 43 44 45 45 46 46
27 27 27 27 28 28 28 28 29 29 29 30 30 31 31 32 32 32 33 34 34 34 35 35 36 37 38 39 40 41 42 43 43 44 45 45 46 46 47 47 47 48 48

GEFSMW_500_meanwind_180.txt.gz
Wind_Speed
12 11 11 11 10 8 7 6 5 4 4 4 4 4 4 4 4 5 5 6 6 7 8 8 8 8 8 9 9 8 8 8 8 8 8 8 8 7 7 7 8 8 8
12 11 11 11 10 9 8 7 5 4 5 4 4 4 4 5 5 5 5 6 7 7 7 8 8 8 8 8 8 8 8 8 8 8 8 8 8 8 9 9 9 8 8
12 12 12 11 10 9 8 7 6 5 5 5 4 4 5 5 5 5 6 6 7 7 7 8 8 8 8 8 8 8 8 8 8 8 9 9 9 10 10 10 9 9 9
12 12 12 11 11 10 9 8 7 6 6 5 5 5 6 6 6 6 7 7 7 8 8 8 8 8 8 7 8 8 8 9 9 9 9 10 10 11 11 11 10 10 10
12 12 12 12 11 10 9 8 8 7 6 6 7 7 7 7 7 7 7 8 8 8 8 8 8 8 8 8 8 8 8 9 9 10 10 10 11 11 11 11 11 11 11
12 13 13 12 12 10 9 9 8 8 8 8 8 8 8 8 8 8 8 8 8 9 9 9 9 9 8 8 8 8 9 10 10 10 11 11 12 12 12 12 11 11 12
13 13 12 12 12 11 10 9 9 9 9 9 9 9 9 8 8 8 9 9 9 9 9 9 9 9 9 9 9 9 10 10 11 11 12 12 13 13 13 13 13 13 13
13 13 13 12 12 11 11 10 10 9 9 10 10 10 10 9 10 10 10 10 10 11 11 11 10 10 10 10 10 10 11 11 11 12 12 13 14 14 14 14 14 14 13
14 14 13 13 13 12 11 11 11 11 11 11 11 10 11 11 11 12 12 12 12 12 12 12 11 11 11 11 11 11 12 12 12 12 13 13 14 14 14 14 14 14 14
13 13 13 13 12 12 12 12 12 12 12 11 11 11 11 11 11 13 13 13 14 13 13 13 12 12 12 12 12 12 13 13 13 14 14 14 14 15 15 15 15 15 15
13 12 12 12 12 12 12 11 12 12 12 12 12 12 12 13 13 13 14 14 15 15 14 14 14 13 13 13 14 14 15 15 15 15 15 15 15 16 16 16 16 16 16
12 12 12 12 12 12 12 12 12 11 11 12 12 13 13 14 14 15 15 16 16 16 15 15 15 15 15 15 16 16 16 16 16 16 16 16 17 17 17 17 17 17 18
12 12 11 12 12 12 12 12 12 11 12 13 13 14 14 15 16 16 17 17 17 17 17 16 17 17 17 17 17 17 17 18 18 18 18 18 18 18 19 19 19 19 20
11 11 12 12 12 12 13 13 13 13 13 14 15 15 15 16 17 17 17 17 17 18 18 18 18 18 18 18 19 19 19 19 19 20 20 20 20 20 21 21 21 21 22
12 13 13 13 13 14 14 14 14 14 14 15 15 15 15 15 16 17 17 18 18 19 19 19 19 19 20 19 19 20 20 20 21 21 21 21 22 22 22 23 23 23 24
13 14 14 14 15 15 15 14 14 15 15 15 16 16 16 17 17 17 18 19 19 19 20 20 20 21 21 21 21 22 22 22 22 22 22 22 23 24 24 25 25 26 26
13 14 14 15 15 16 15 15 16 16 16 17 17 17 18 18 19 19 20 20 20 21 21 21 21 22 23 23 23 23 23 23 24 24 24 24 25 26 27 28 28 28 29
14 14 15 15 16 16 16 17 17 18 18 18 18 18 19 20 20 20 21 21 21 21 22 22 23 23 24 24 24 24 24 25 25 26 26 26 27 28 28 29 30 31 31
14 15 16 17 17 17 18 18 18 19 20 20 19 20 20 21 21 21 22 22 22 22 23 24 24 24 24 25 25 26 26 27 27 28 28 29 29 30 30 31 32 33 34
17 18 18 19 19 19 19 19 19 19 20 20 21 21 21 22 22 22 23 23 23 23 24 24 24 25 25 26 27 28 28 29 30 30 30 31 32 33 33 34 35 35 36
19 20 20 20 20 20 20 21 21 21 21 21 21 22 22 22 23 23 24 24 24 25 25 25 26 27 27 28 29 30 30 31 31 32 32 33 34 35 35 36 37 38 38
20 20 21 21 21 21 21 22 22 22 22 22 23 23 23 24 24 25 25 25 25 26 26 27 28 29 29 30 31 31 32 33 34 34 34 35 35 37 38 38 39 40 41
21 21 21 22 22 22 22 23 23 24 24 25 25 25 25 26 26 26 26 27 27 27 28 29 30 30 31 32 33 33 34 35 36 36 37 37 38 39 40 40 41 42 42
22 23 23 22 23 23 24 25 25 26 26 27 27 27 27 27 27 28 28 29 29 30 31 32 32 33 33 34 35 35 36 36 37 38 39 39 40 40 41 42 43 43 44
23 23 24 24 24 25 25 26 26 27 27 28 28 29 29 29 29 30 30 31 32 33 33 34 34 35 35 36 36 37 37 38 39 40 41 41 42 42 43 44 44 45 45
24 25 25 25 26 26 27 27 28 28 28 29 30 30 31 31 31 31 32 32 33 34 34 35 36 36 36 37 38 39 39 40 41 42 42 43 43 44 45 46 46 47 47